カタログに戻る

STARLINK-31277

運用中通信VLEO
NORAD 59651·PAYLOAD·🇺🇸 United States

打ち上げ May 3, 2024 から Cape Canaveral Space Force Station

Loading…

次のパス (今後24時間)

TLE

最新Source: CelesTrak SupGP

元期: Sep 15, 2026, 02:39 UTC

1 59651C 24082W   26258.11090278 -.00036106  00000+0 -13088-2 0  2580
2 59651  42.9998 150.1651 0001367 270.6195 325.8520 15.27570195    13

AllMySatでSTARLINK-31277をリアルタイム追跡

Download on the App Store